Regional Weather Roundup
Issued by NWS

Home | Current Version | Previous Version | Graphics & Text | Print | Product List | Glossary On
Versions: 1 2 3 4 5 6 7 8 9 10 11 12 13 14 15 16 17 18 19 20 21 22 23 24 25 26 27 28 29 30 31 32 33 34 35 36 37 38 39 40 41 42 43 44 45 46 47 48 49 50
000
ASUS43 KMKX 192300
RWRWI

WISCONSIN REGIONAL WEATHER ROUNDUP
NATIONAL WEATHER SERVICE MILWAUKEE/SULLIVAN WI
500 PM CST THU JAN 19 2017

NOTE: "FAIR" INDICATES FEW OR NO CLOUDS BELOW 12,000 FEET WITH NO
SIGNIFICANT WEATHER AND/OR OBSTRUCTIONS TO VISIBILITY.

WIZ001-002-006>008-014>016-023>028-200000-
NORTHWEST WISCONSIN

CITY           SKY/WX    TMP DP  RH WIND       PRES   REMARKS
SUPERIOR ARPT  CLEAR     36  32  84 CALM      29.75R
ASHLAND        CLEAR     41  33  73 SW7       29.76R
HAYWARD        CLEAR     38  32  79 SE3       29.76R
SIREN          CLEAR     42  33  71 S7        29.75S
CUMBERLAND     PTCLDY    34  32  93 SE5       29.77R WCI  30
RICE LAKE      CLEAR     36  32  86 SE7       29.79R WCI  31
CHETEK         NOT AVBL
LADYSMITH      CLEAR     39  33  78 S5        29.80R
EAU CLAIRE     CLOUDY    38  32  79 S3        29.80R
MENOMONIE        N/A    N/A N/A N/A MISG        N/A
NEW RICHMOND   CLOUDY    37  31  81 S5        29.78R WCI  33
OSCEOLA        CLOUDY    37  32  82 SE7       29.79S WCI  31
$$

WIZ003>005-009-010-017-018-200000-
NORTH CENTRAL WISCONSIN

CITY           SKY/WX    TMP DP  RH WIND       PRES   REMARKS
MANITOWISH WTR NOT AVBL
ARBOR VITAE    CLEAR     42  34  75 S5        29.79S
WOODRUFF       CLEAR     42  34  75 S5        29.79S
RHINELANDER    CLEAR     38  32  79 S5        29.81R WCI  34
EAGLE RIVER    CLEAR     44  31  59 SW3       29.79S
LAND O LAKES   CLEAR     45  34  64 S5        29.80S
PHILLIPS       CLEAR     39  32  75 S7        29.78R WCI  34
TOMAHAWK       CLEAR     33  30  90 CALM      29.82R FOG
MEDFORD        FOG       31  31  99 SE5       29.81S VSB 1/2 WCI  26
MERRILL        PTCLDY    33  33 100 CALM        N/A  FOG
$$

WIZ029-030-035-036-043>047-200000-
CENTRAL WISCONSIN

CITY           SKY/WX    TMP DP  RH WIND       PRES   REMARKS
WAUSAU         CLEAR     34  31  88 SE7       29.82S WCI  28
MOSINEE        CLOUDY    32  32 100 SE5       29.84S FOG     WCI  27
MARSHFIELD     CLOUDY    34  31  88 E8        29.80F FOG     WCI  27
STEVENS POINT  CLOUDY    32  32 100 CALM      29.85S FOG
WAUPACA        CLOUDY    34  32  91 CALM      29.88R FOG
WAUTOMA        CLOUDY    33  32  96 CALM      29.87F
WISC RAPIDS    PTCLDY    36  32  85 SE8       29.85S WCI  30
CAMP DOUGLAS   NOT AVBL
$$

WIZ011>013-019>022-031-037>040-048>050-200000-
NORTHEAST WISCONSIN

CITY           SKY/WX    TMP DP  RH WIND       PRES   REMARKS
ANTIGO         FOG       31  31 100 S6        29.84S VSB 1/4 WCI  25
SHAWANO        CLOUDY    34  32  93 CALM      29.88R FOG
OCONTO         CLOUDY    33  31  96 CALM      29.88F
STURGEON BAY   CLOUDY    33  31  92 SE6       29.89S FOG     WCI  28
GREEN BAY      FOG       34  34 100 SW3       29.89R VSB 1/4
MANITOWOC      FOG       34  32  93 S6        29.90R VSB 3/4 WCI  29
APPLETON       FOG       32  32 100 SW5       29.86S VSB 3/4 WCI  27
CLINTONVILLE   CLOUDY    32  32 100 CALM      29.89R FOG
OSHKOSH        FOG       33  33 100 CALM      29.88R VSB 1/2
$$

WIZ032>034-041-042-053>061-200000-
SOUTHWEST WISCONSIN

CITY           SKY/WX    TMP DP  RH WIND       PRES   REMARKS
LA CROSSE      CLOUDY    38  33  82 S5        29.81S WCI  34
SPARTA         CLOUDY    37  33  84 S6        29.84R WCI  33
VIROQUA        CLOUDY    35  34  95 SE7       29.81S WCI  29
BOSCOBEL       LGT RAIN  38  34  85 CALM      29.83S FOG
PRAIRIE DU CHI LGT RAIN  36  34  93 CALM      29.81F
PLATTEVILLE    CLOUDY    36  36 100 E9        29.82S WCI  29
$$

WIZ056-057-062-063-064-067-068-200000-
SOUTH CENTRAL WISCONSIN

CITY           SKY/WX    TMP DP  RH WIND       PRES   REMARKS
REEDSBURG      NOT AVBL
BARABOO/DELLS  CLOUDY    36  33  90 CALM      29.84F FOG
LONE ROCK      NOT AVBL
MINERAL POINT  LGT RAIN  36  36 100 E3        29.82S
MADISON        CLOUDY    35  34  96 E5        29.85F FOG     WCI  31
MIDDLETON      CLOUDY    37  37 100 E3        29.85F
WATERTOWN      CLOUDY    36  36  99 E3        29.85F FOG
MONROE         LGT RAIN  34  34 100 E5        29.83S VSB 1/4 WCI  30
JANESVILLE     CLOUDY    37  37 100 CALM      29.85S FOG
$$

WIZ051-052-058>065-066-070>072-200000-
SOUTHEAST WISCONSIN

CITY           SKY/WX    TMP DP  RH WIND       PRES   REMARKS
MILWAUKEE      FOG       36  33  89 SE6       29.88F VSB 1/4 WCI  31
WAUKESHA       PTCLDY    34  34 100 E5        29.87F FOG     WCI  30
MILWAUKEE/TIMM MOCLDY    36  32  87 E5        29.88F FOG     WCI  32
RACINE         FOG       36  35  96 SE5       29.89F VSB 1/4 WCI  32
KENOSHA        FOG       35  34  96 E6        29.86F VSB 3/4 WCI  30
FOND DU LAC    CLOUDY    35  32  88 CALM      29.86F FOG
SHEBOYGAN      FOG       32  32 100 CALM      29.88F VSB 1/4
WEST BEND        N/A     34  34 100 CALM      29.87F FOG
JUNEAU         CLOUDY    34  33  99 CALM      29.87S FOG
$$

LSZ147-162-200000-
LAKE SUPERIOR

STATION/POSITION TIME  TEMP    WIND        PRES    WAVE
                       AIR SEA DIR/SP/G            HT/PER
                 (UTC) (F)     (DEG/KT/KT) (MB)    (FT/S)
DEVILS ISLAND    2200   34      70/  7/  7 1008.1R
PORT WING        2240   35      30/  8/ 10 1007.8R
SAXON HARBOR     2240   40     190/  2/  3 1007.5S
$$

LMZ867-665-643>646-200000-
LAKE MICHIGAN

STATION/POSITION TIME  TEMP    WIND        PRES    WAVE
                       AIR SEA DIR/SP/G            HT/PER
                 (UTC) (F)     (DEG/KT/KT) (MB)    (FT/S)
NORTHPORT PIER   2230   34     190/  1/  3 1012.2S
SISTER BAY       2205   34     210/ 10/ 10   N/A
ALGOMA LAKESHORE 2054          230/ 14/ 17   N/A
KEWAUNEE LAKESHO 2230   32     200/  6/ 10 1011.9S
SHEBOYGAN LAKESH 2200   33     190/ 13/ 14 1013.1R
PORT WASHINGTON  2240   34     190/  5/ 10 1012.9F
MILWAUKEE LAKESH 2230   34     150/  6/  7   N/A
KENOSHA   LAKESH 2200   34        CALM     1012.5
$$

TC  - TEMPERATURE IN CELSIUS
VSB - VISIBILITY IN STATUTE MILES
WCI - WIND CHILL INDEX
HX  - HEAT INDEX





USA.gov is the U.S. government's official web portal to all federal, state and local government web resources and services.